Location: Bittkow
(50.3000°N, 19.0000°E)
Time: 13:21:40
(UTC+00:00)

CZ-2D R/B - Pass Details

Date: 19 September 2020
Orbit: 553 x 637 km, 97.9° (Epoch: 25 October)

Event Time Altitude Azimuth Distance (km) Brightness Sun altitude
Rises 02:21:18 0° 11° (N) 2,821 7.5 -19.9°
Reaches altitude 10° 02:23:27 10° 8° (N) 1,929 6.6 -19.6°
Maximum altitude 02:27:35 63° 288° (WNW) 673 3.5 -19.0°
Enters shadow 02:28:50 42° 226° (SW) 865 3.8 -18.8°
